Tracking 21082 objects as of 5-Aug-2020
HD Live streaming from Space Station
objects crossing your sky now

COSMOS 397 DEB *

Track COSMOS 397 DEB * now!
10-day predictions


NORAD ID: 5414
Int'l Code: 1971-015BL
Perigee: 829.6 km
Apogee: 958.6 km
Inclination: 66.8 °
Period: 102.7 minutes
Semi major axis: 7265 km
RCS: 0.0112 m2 (small)
Launch date: February 25, 1971
Source: Commonwealth of Independent States (former USSR) (CIS)
Launch site: TYURATAM MISSILE AND SPACE COMPLEX (TTMTR)

Note: This is SATELLITE DEBRIS
aabbcc
Your satellite tracking list
Your tracking list is empty




NASA's NSSDC Master Catalog

Two Line Element Set (TLE):
1  5414U 71015BL  20217.44445019 -.00000044  00000-0  22750-4 0  9990
2  5414  66.7693 355.2192 0088773 310.0677  49.2646 14.01965521525150
Source of the keplerian elements: AFSPC